Decatur, IL

2:03 PM CDT on March 26, 2017 (GMT -0500)
Decatur

Weather History for KDEC - October, 2012

Change the Weather History Date:

Wednesday, October 31, 2012

  Actual Average Record
Temperature  
Mean Temperature 41 °F 50 °F  
Max Temperature 50 °F 60 °F 75 °F (1999)
Min Temperature 32 °F 40 °F 30 °F (1996)
Degree Days  
Heating Degree Days 24 16  
Month to date heating degree days 381 346  
Since 1 July heating degree days 461 418  
Cooling Degree Days 0 0  
Month to date cooling degree days 6 19  
Year to date cooling degree days 1427 1048  
Moisture  
Dew Point 26 °F    
Average Humidity 58    
Maximum Humidity 78    
Minimum Humidity 37    
Precipitation  
Precipitation 0.00 in 0.11 in 1.65 in (2013)
Month to date precipitation 3.58 3.28  
Year to date precipitation 22.70 32.48  
Sea Level Pressure  
Sea Level Pressure 29.91 in    
Wind  
Wind Speed 12 mph (NW)    
Max Wind Speed 20 mph    
Max Gust Speed 25 mph    
Visibility 10 miles    
Events      
T = Trace of Precipitation, MM = Missing Value Source: NWS Daily Summary

Daily Weather History Graph

Daily Weather History Graph

Search for Another Location

Airport or City:

Trip Planner

Search our weather history database for the weather conditions in past years. The results will help you decide how hot, cold, wet, or windy it might be!

Date:

Astronomy

Oct. 31, 2012 Rise Set
Actual Time 7:23 AM CDT 5:53 PM CDT
Civil Twilight 6:55 AM CDT 6:21 PM CDT
Nautical Twilight 6:23 AM CDT 6:53 PM CDT
Astronomical Twilight 5:52 AM CDT 7:25 PM CDT
Moon 7:05 PM CDT (10/31) 9:04 AM CDT (10/31)
Length of Visible Light 11h 26m
Length of Day
10h 30m
Full, 97% of the Moon is Illuminated
Oct 31
Full
Nov 6
Last Quarter
Nov 13
New
Nov 20
First Quarter
Nov 28
Full

Hourly Weather History & Observations

Time (CDT) Temp. Windchill Dew Point Humidity Pressure Visibility Wind Dir Wind Speed Gust Speed Precip Events Conditions
12:54 AM 39.0 °F 32.3 °F 25.0 °F 57% 29.86 in 10.0 mi NW 10.4 mph - N/A   Clear
1:54 AM 37.9 °F 32.1 °F 25.0 °F 60% 29.87 in 10.0 mi NW 8.1 mph 17.3 mph N/A   Clear
2:54 AM 36.0 °F 28.5 °F 25.0 °F 64% 29.88 in 10.0 mi WNW 10.4 mph - N/A   Clear
3:54 AM 35.1 °F 26.9 °F 25.0 °F 67% 29.88 in 10.0 mi NW 11.5 mph - N/A   Clear
4:54 AM 34.0 °F 25.0 °F 25.0 °F 70% 29.89 in 10.0 mi WNW 12.7 mph - N/A   Clear
5:54 AM 33.1 °F 24.4 °F 25.0 °F 72% 29.88 in 10.0 mi NW 11.5 mph - N/A   Clear
6:54 AM 33.1 °F 25.5 °F 25.0 °F 72% 29.90 in 10.0 mi NW 9.2 mph - N/A   Clear
7:54 AM 32.0 °F 23.0 °F 26.1 °F 79% 29.91 in 10.0 mi NW 11.5 mph - N/A   Clear
8:54 AM 35.1 °F 26.9 °F 27.0 °F 72% 29.92 in 10.0 mi NW 11.5 mph - N/A   Clear
9:54 AM 37.9 °F 29.6 °F 28.9 °F 70% 29.92 in 10.0 mi NNW 13.8 mph 18.4 mph N/A   Clear
10:54 AM 39.0 °F 31.4 °F 30.0 °F 70% 29.93 in 10.0 mi NW 12.7 mph 18.4 mph N/A   Clear
11:54 AM 43.0 °F 36.4 °F 30.9 °F 62% 29.93 in 10.0 mi WNW 12.7 mph - N/A   Clear
12:54 PM 45.0 °F 38.2 °F 32.0 °F 60% 29.91 in 10.0 mi WNW 15.0 mph 23.0 mph N/A   Clear
1:54 PM 46.0 °F 39.9 °F 30.9 °F 56% 29.91 in 10.0 mi WNW 13.8 mph 21.9 mph N/A   Clear
2:54 PM 48.0 °F - 30.9 °F 52% 29.90 in 10.0 mi WNW 15.0 mph - N/A   Clear
3:54 PM 48.9 °F - 28.9 °F 46% 29.90 in 10.0 mi WNW 18.4 mph 24.2 mph N/A   Clear
4:54 PM 48.9 °F - 25.0 °F 39% 29.90 in 10.0 mi NW 12.7 mph 19.6 mph N/A   Clear
5:54 PM 46.9 °F - 21.0 °F 36% 29.91 in 10.0 mi WNW 10.4 mph - N/A   Clear
6:54 PM 46.0 °F 41.0 °F 21.0 °F 37% 29.93 in 10.0 mi WNW 10.4 mph - N/A   Clear
7:54 PM 45.0 °F 38.9 °F 21.0 °F 39% 29.93 in 10.0 mi WNW 12.7 mph - N/A   Clear
9:54 PM 42.1 °F 36.6 °F 21.0 °F 43% 29.94 in 10.0 mi WNW 9.2 mph 18.4 mph N/A   Clear
10:54 PM 41.0 °F 35.2 °F 21.9 °F 47% 29.94 in 10.0 mi NW 9.2 mph - N/A   Clear
11:54 PM 39.9 °F 33.4 °F 21.9 °F 49% 29.94 in 10.0 mi WNW 10.4 mph - N/A   Clear